User: anonymous   Login
Location: Buckenweiler
(49.0667°N, 10.2500°E)
Time: 18:07:38
(UTC+00:00)
Language:

Gblst 52 Del rocket - Orbit

View from above orbital plane
View from above orbital plane
View from above satellite
View from above satellite

Ground track
Ground track

The orbit is defined by the following mean orbital elements,

1 25774U          26067.85903537 +.00000000 +00000-0 +58790-4 0 00002
2 25774  51.5284 258.7310 0374033 243.7550 225.8450 13.46767304    01
Epoch (UTC): 08 March 2026 20:37:00
Eccentricity: 0.0374033
inclination: 51.5284°
perigee height: 805 km
apogee height: 1363 km
right ascension of ascending node: 258.7310°
argument of perigee: 243.7550°
revolutions per day: 13.46767304
mean anomaly at epoch: 225.8450°

The dashed part of the orbit path shows where the satellite is in the earth's shadow,  

DLR